Location: Carrières
(48.9495°N, 2.0407°E)
Time: 19:51:01
(UTC+00:00)

Tiros 1 - Pass Details

Date: 18 April 2024
Orbit: 624 x 657 km, 48.4° (Epoch: 24 May)

Event Time Altitude Azimuth Distance (km) Brightness Sun altitude
Rises 00:59:35 0° 225° (SW) 2,918 - -28.2°
Reaches altitude 10° 01:02:02 10° 217° (SW) 2,007 - -28.1°
Maximum altitude 01:06:16 36° 151° (SSE) 989 - -27.9°
Exits shadow 01:08:53 20° 96° (E) 1,464 9.1 -27.7°
Drops below altitude 10° 01:10:29 10° 85° (E) 2,000 10.0 -27.6°
Sets 01:12:55 0° 77° (ENE) 2,907 11.0 -27.5°
